Weather History for West Palm Beach, FL

Change the Weather History Date:

Sunday, May 26, 2013

  Actual Average Record
Temperature  
Mean Temperature 78 °F 80 °F  
Max Temperature 83 °F 87 °F 93 °F (2000)
Min Temperature 73 °F 73 °F 57 °F (1979)
Degree Days  
Heating Degree Days 0 0  
Month to date heating degree days 0 0  
Since 1 July heating degree days 164 233  
Cooling Degree Days 13 15  
Month to date cooling degree days 289 337  
Year to date cooling degree days 1116 1032  
Growing Degree Days 28 (Base 50)    
Moisture  
Dew Point 62 °F    
Average Humidity 63    
Maximum Humidity 74    
Minimum Humidity 51    
Precipitation  
Precipitation 0.00 in 0.21 in 3.65 in (1968)
Month to date precipitation 13.20 3.41  
Year to date precipitation 22.48 17.61  
Snow  
Snow 0.00 in - - ()
Month to date snowfall 0.0  
Since 1 July snowfall 0.0  
Snow Depth 0.00 in    
Sea Level Pressure  
Sea Level Pressure 30.15 in    
Wind  
Wind Speed 12 mph (ENE)    
Max Wind Speed 18 mph    
Max Gust Speed 24 mph    
Visibility 10 miles    
Events      
T = Trace of Precipitation, MM = Missing Value Source: NWS Daily Summary

Daily Weather History Graph

Daily Weather History Graph

Search for Another Location

Airport:

Trip Planner

Search our weather history database for the weather conditions in past years. The results will help you decide how hot, cold, wet, or windy it might be!

Date:

Astronomy

May. 26, 2013 Rise Set
Actual Time 6:28 AM EDT 8:06 PM EDT
Civil Twilight 6:02 AM EDT 8:32 PM EDT
Nautical Twilight 5:31 AM EDT 9:03 PM EDT
Astronomical Twilight 4:59 AM EDT 9:35 PM EDT
Moon 9:55 PM EDT (5/26) 7:54 AM EDT (5/26)
Length of Visible Light 14h 29m
Length of Day
13h 38m
Waning Gibbous, 97% of the Moon is Illuminated
May 26
Waning Gibbous
May 31
Last Quarter
Jun 8
New
Jun 16
First Quarter
Jun 23
Full

Hourly Weather History & Observations

Time (EDT) Temp. Heat Index Dew Point Humidity Pressure Visibility Wind Dir Wind Speed Gust Speed Precip Events Conditions
12:53 AM 75.9 °F - 61.0 °F 60% 30.16 in 10.0 mi ENE 11.5 mph - N/A   Scattered Clouds
1:53 AM 75.9 °F - 57.9 °F 54% 30.15 in 10.0 mi ENE 6.9 mph - N/A   Partly Cloudy
2:53 AM 75.0 °F - 60.1 °F 60% 30.13 in 10.0 mi NE 6.9 mph - N/A   Partly Cloudy
3:53 AM 73.0 °F - 61.0 °F 66% 30.12 in 10.0 mi NNE 3.5 mph - N/A   Clear
4:53 AM 73.9 °F - 61.0 °F 64% 30.12 in 10.0 mi NNE 3.5 mph - N/A   Partly Cloudy
5:53 AM 75.0 °F - 63.0 °F 66% 30.12 in 10.0 mi ENE 6.9 mph - N/A   Partly Cloudy
6:53 AM 75.0 °F - 64.0 °F 69% 30.12 in 10.0 mi ENE 8.1 mph - N/A   Scattered Clouds
7:53 AM 75.9 °F - 66.0 °F 71% 30.13 in 10.0 mi NNE 8.1 mph - N/A   Mostly Cloudy
8:53 AM 79.0 °F - 64.9 °F 62% 30.15 in 10.0 mi ESE 16.1 mph - N/A   Mostly Cloudy
9:53 AM 80.1 °F 81.9 °F 64.9 °F 60% 30.16 in 10.0 mi ENE 13.8 mph - N/A   Mostly Cloudy
10:53 AM 80.1 °F 81.7 °F 64.0 °F 58% 30.18 in 10.0 mi East 16.1 mph 21.9 mph N/A   Mostly Cloudy
11:53 AM 81.0 °F 82.5 °F 64.0 °F 56% 30.19 in 10.0 mi ENE 15.0 mph 21.9 mph N/A   Mostly Cloudy
12:53 PM 82.0 °F 83.1 °F 63.0 °F 52% 30.18 in 10.0 mi NE 13.8 mph - N/A   Mostly Cloudy
1:53 PM 82.0 °F 83.1 °F 63.0 °F 52% 30.17 in 10.0 mi East 13.8 mph 21.9 mph N/A   Mostly Cloudy
2:53 PM 82.0 °F 83.4 °F 64.0 °F 54% 30.16 in 10.0 mi ENE 15.0 mph 21.9 mph N/A   Mostly Cloudy
3:53 PM 81.0 °F 82.2 °F 63.0 °F 54% 30.14 in 10.0 mi ENE 15.0 mph - N/A   Mostly Cloudy
4:53 PM 80.1 °F 81.5 °F 63.0 °F 56% 30.14 in 10.0 mi ENE 12.7 mph 19.6 mph N/A   Mostly Cloudy
5:53 PM 80.1 °F 81.5 °F 63.0 °F 56% 30.12 in 10.0 mi NE 12.7 mph - N/A   Mostly Cloudy
6:53 PM 78.1 °F - 62.1 °F 58% 30.12 in 10.0 mi ENE 12.7 mph - N/A   Mostly Cloudy
7:53 PM 77.0 °F - 62.1 °F 60% 30.13 in 10.0 mi ENE 13.8 mph - N/A   Mostly Cloudy
8:53 PM 77.0 °F - 62.1 °F 60% 30.13 in 10.0 mi ENE 12.7 mph - N/A   Mostly Cloudy
9:53 PM 77.0 °F - 62.1 °F 60% 30.14 in 10.0 mi ENE 12.7 mph - N/A   Mostly Cloudy
10:53 PM 77.0 °F - 61.0 °F 58% 30.17 in 10.0 mi East 12.7 mph - N/A   Mostly Cloudy
11:53 PM 75.9 °F - 60.1 °F 58% 30.17 in 10.0 mi East 16.1 mph - N/A   Mostly Cloudy